Home   Weather   Mattersburg   Past weeks

Flag for Austria Past Weather in Mattersburg, Burgenland, Austria — Yesterday and Last 2 Weeks

Now
41 °F

Overcast.


Feels Like: 41 °F
Forecast: 37 / 50 °F
Wind: No wind

Location: Eisenstadt

Current Time: Feb 20, 2017 at 2:42:09 pm

Latest Report: Feb 20, 2017 at 1:00 pm


Visibility: 9 mi

Pressure: 30.19 "Hg

Humidity: 78%

Dew Point: 34 °F

Location of MattersburgLocation

Past Weather in Mattersburg — Graph

°F

Mattersburg Temperature Yesterday

Maximum temperature yesterday: 47 °F (at 2:00 pm)
Minimum temperature yesterday: 33 °F (at 10:00 pm)
Average temperature yesterday: 39 °F

High & Low Weather Summary for the Past Weeks

 TemperatureHumidityPressure
High53 °F (Feb 5, 1:00 pm)99% (Feb 16, 8:00 am)30.63 "Hg (Feb 16, 8:00 am)
Low27 °F (Feb 9, 5:00 am)47% (Feb 5, 2:00 pm)29.69 "Hg (Feb 5, 4:00 pm)
Average34 °F81%30.33 "Hg
* Reported Feb 5 1:00 pm — Feb 20 1:00 pm, Mattersburg, Weather by CustomWeather, © 2017

Note: Actual official high and low records may vary slightly from our data, if they occured in-between our weather recording intervals... More about our weather records

Advertising

Mattersburg Weather History for the Previous 24 Hours

Scroll right to see more
 ConditionsComfort  
Time TempWeatherWind HumidityBarometerVisibility
1:00 pm
Mon, Feb 20
41 °FOvercast.No wind78%30.19 "Hg9 mi
12:00 pm38 °FChilly.1 mph82%30.21 "HgN/A
11:00 am33 °FChilly.1 mph90%30.23 "HgN/A
10:00 am32 °FFog.1 mph89%30.24 "Hg4 mi
9:00 am31 °FChilly.1 mph91%30.24 "HgN/A
8:00 am31 °FChilly.1 mph92%30.22 "HgN/A
7:00 am29 °FPartly sunny.1 mph93%30.22 "Hg4 mi
6:00 am30 °FOvercast.1 mph91%30.21 "Hg4 mi
5:00 am29 °FPassing clouds.1 mph95%30.22 "Hg4 mi
4:00 am31 °FOvercast.1 mph93%30.21 "Hg6 mi
3:00 am31 °FChilly.1 mph93%30.22 "HgN/A
2:00 am31 °FChilly.2 mph92%30.22 "HgN/A
1:00 am32 °FClear.3 mph91%30.22 "Hg6 mi
12:00 am33 °FChilly.1 mph89%30.22 "HgN/A
11:00 pm
Sun, Feb 19
33 °FChilly.2 mph90%30.21 "HgN/A
10:00 pm33 °FPassing clouds.3 mph90%30.20 "Hg6 mi
9:00 pm35 °FChilly.3 mph86%30.20 "HgN/A
8:00 pm39 °FChilly.2 mph82%30.21 "HgN/A
7:00 pm40 °FPassing clouds.3 mph80%30.21 "Hg6 mi
6:00 pm43 °FQuite cool.2 mph65%30.19 "HgN/A
5:00 pm45 °FQuite cool.2 mph62%30.20 "HgN/A
4:00 pm46 °FOvercast.2 mph59%30.21 "Hg9 mi
3:00 pm46 °FCool.3 mph57%30.22 "HgN/A
2:00 pm47 °FCool.2 mph59%30.24 "HgN/A
Weather by CustomWeather, © 2017

See weather overviewHow to use our weather pages